User: anonymous   Login
Location: Unspecified
(0.0000°N, 0.0000°E)
Time: 09:56:20
(UTC+00:00)
Language:

Tandem-X - Orbit

View from above orbital plane
View from above orbital plane
View from above satellite
View from above satellite

Ground track
Ground track

The orbit data is extracted from the following two-line orbital elements,

1 36605U 10030A   24064.44308929  .00002632  00000-0  12844-3 0  9994
2 36605  97.4475  73.0821 0001968  98.0199 262.1259 15.19157440759914
Epoch (UTC): 04 March 2024 10:38:02
Eccentricity: 0.0001968
inclination: 97.4475°
perigee height: 507 km
apogee height: 510 km
right ascension of ascending node: 73.0821°
argument of perigee: 98.0199°
revolutions per day: 15.19157440
mean anomaly at epoch: 262.1259°
orbit number at epoch: 75991

The dashed part of the orbit path shows where the satellite is in the earth's shadow,  

DLR